Regional Weather Roundup
Issued by NWS Newport/Morehead, NC

Current Version | Previous Version | Text Only | Print | Product List | Glossary On
Versions: 1 2 3 4 5 6 7 8 9 10 11 12 13 14 15 16 17 18 19 20 21 22 23 24 25 26 27 28 29 30 31 32 33 34 35 36 37 38 39 40 41 42 43 44 45 46 47 48 49 50
000
ASUS42 KMHX 240222
RWRMHX
WEATHER ROUNDUP FOR EASTERN NORTH CAROLINA
NATIONAL WEATHER SERVICE NEWPORT/MOREHEAD CITY NC
1000 PM EDT WED JUL 23 2014

NOTE: "FAIR" INDICATES FEW OR NO CLOUDS BELOW 12,000 FEET
WITH NO SIGNIFICANT WEATHER AND/OR OBSTRUCTIONS TO VISIBILITY

NCZ015>017-031-032-045>047-102-103-240300-
NORTH COAST

CITY           SKY/WX    TMP DP  RH WIND       PRES   REMARKS
EDENTON        PTCLDY    80  76  89 S6        29.92F
ELIZABETH CITY CLEAR     79  75  87 SW9       29.92S
KITTY HAWK     PTCLDY    80  75  86 SW8       29.92S
MANTEO         NOT AVBL

$$

NCZ045>047-081-094-103-104-240300-
CENTRAL COAST

CITY           SKY/WX    TMP DP  RH WIND       PRES   REMARKS
FRISCO         MOCLDY    79  77  94 W9        29.95R
SWANQUARTER      N/A     81 N/A N/A SW9G17    29.91R

$$

NCZ095-097-098-100-101-240300-
SOUTHERN COAST

CITY           SKY/WX    TMP DP  RH WIND       PRES   REMARKS
BEAUFORT       CLOUDY    81  76  84 SW14G23   29.96R
CEDAR ISLAND     N/A     79 N/A N/A SW6G13    29.97S
JACKSONVILLE   PTCLDY    77  74  90 S5        29.95R
NEWPORT        NOT AVBL
PINEY ISLAND   MOCLDY    79  77  94 SW8       29.94S
WILMINGTON     PTCLDY    80  74  81 SW7       29.96S


$$

NCZ011>013-027>030-043-044-078>080-089-090>093-098-240300-
COASTAL PLAIN

CITY           SKY/WX    TMP DP  RH WIND       PRES   REMARKS
AHOSKIE        CLEAR     78  73  84 S3        29.91F
CLINTON        CLEAR     78  76  92 S5        29.94F
ELIZABETHTOWN  CLEAR     78  75  89 S3        29.96S
GOLDSBORO      CLEAR     80  78  95 S5        29.91S
GREENVILLE     CLEAR     79  73  83 CALM      29.95R
HAVELOCK       MOCLDY    79  74  84 S7        29.96R
KENANSVILLE    CLEAR     78  73  84 S3        29.95R
KINSTON        CLEAR     80  74  84 S3        29.94R
NEW BERN       PTCLDY    80  75  84 S5        29.95S
RICHLANDS      PTCLDY    75  72  88 SW7       29.94S
ROANOKE RAPIDS NOT AVBL
ROCKY MOUNT    CLEAR     78  73  84 S3        29.92S
WASHINGTON     CLEAR     78  76  91 S3        29.93S
WHITEVILLE     PTCLDY    78  75  90 S3        29.96S

$$

AMZ130-135-150-152-154-156-158-170-250-252-270-ANZ085-086-088-633-658-670-240300-
MARINE OBSERVATIONS

STATION/POSITION TIME  TEMP    WIND        PRES    WAVE   SWELL
                       AIR SEA DIR/SP/G            HT/PER HT/PER
                 (UTC) (F)     (DEG/KT/KT) (MB)    (FT/S) (FT/S)
CHESAPEAKE LIGHT NOT AVBL
BUOY 44014       0200   80 79  210/ 16/ 17 1012.5    3/ 4   2/ 7
DUCK             0200   81 74  220/ 10/ 14 1012.5
2E DUCK          0200                        N/A     2/10
OREGON INLET     0200   81 85  230/ 14/ 18 1013.4
BUOY 44095       0200      78                N/A     4/ 5
20E OREGON INLET NOT AVBL
HATTERAS CG      0200   79 83  220/  7/ 10 1014.5
DIAMOND BUOY     0200          VRB 17/ 19  1013.7    4/ 7   2/ 7
CAPE LOOKOUT     0200   80     220/ 12/ 16 1014.4
BEAUFORT LAB     0200   80 81  220/ 10/ 14 1014.1
30 SE NEW RIVER  0200   80 81  220/ 19/ 23 1014.6    4/ 7   2/ 7
5 SE WRIGHTSVILL 0200   78 81  240/ 16/ 19   N/A
BUOY 41002       0126   82 82  220/ 17/ 21 1017.9    4/ 7   2/ 7
BUOY 41004       0200   82 83  210/ 12/ 14 1015.0    3/ 6   2/ 6

$$



USA.gov is the U.S. government's official web portal to all federal, state and local government web resources and services.